Location: El Bakhil
(32.7726°N, 5.5387°W)
Time: 04:35:55
(UTC+00:00)

Cosmos 2322 - Pass Details

Date: 03 March 2021
Orbit: 841 x 853 km, 71.0° (Epoch: 12 April)

Event Time Altitude Azimuth Distance (km) Brightness Sun altitude
Rises 19:38:42 0° 195° (SSW) 3,404 7.0 -17.1°
Reaches altitude 10° 19:41:08 10° 193° (SSW) 2,472 6.2 -17.6°
Maximum altitude 19:46:48 77° 109° (ESE) 877 3.6 -18.8°
Drops below altitude 10° 19:52:31 10° 24° (NNE) 2,485 6.0 -20.0°
Sets 19:54:58 0° 23° (NNE) 3,424 6.7 -20.5°
